| time (UTC) | temp F | wind direction | speed MPH | gust MPH | rain 1hr in | rain 24hr in | rain mn in | humidity % | barometer mb |
| 20260504081825 | 51 | 201 | 5.0 | 9.0 | 0.00 | 0.00 | 0.00 | 65 | 1003.8 |
| 20260504080925 | 50 | 198 | 3.0 | 7.0 | 0.00 | 0.00 | 0.00 | 64 | 1003.8 |
| 20260504050004 | 56 | 225 | 3.0 | 5.0 | 0.00 | 0.00 | 0.00 | 56 | 1005.5 |
| 20260504045425 | 56 | 224 | 4.0 | 7.0 | 0.00 | 0.00 | 0.00 | 56 | 1005.5 |
| 20260504044504 | 56 | 224 | 5.0 | 7.0 | 0.00 | 0.00 | 0.00 | 56 | 1005.6 |
| 20260504043624 | 56 | 225 | 5.0 | 8.0 | 0.00 | 0.00 | 0.00 | 55 | 1005.7 |
| 20260504042725 | 56 | 225 | 5.0 | 7.0 | 0.00 | 0.00 | 0.00 | 55 | 1005.7 |
| 20260504041804 | 57 | 224 | 6.0 | 8.0 | 0.00 | 0.00 | 0.00 | 55 | 1005.8 |
| 20260504040904 | 57 | 224 | 5.0 | 7.0 | 0.00 | 0.00 | 0.00 | 54 | 1005.8 |
| 20260504040004 | 57 | 225 | 5.0 | 8.0 | 0.00 | 0.00 | 0.00 | 53 | 1005.9 |
| 20260504035403 | 57 | 224 | 6.0 | 8.0 | 0.00 | 0.00 | 0.00 | 53 | 1005.9 |
| 20260504034504 | 58 | 223 | 6.0 | 8.0 | 0.00 | 0.00 | 0.00 | 53 | 1006.0 |
| 20260504033604 | 58 | 225 | 6.0 | 8.0 | 0.00 | 0.00 | 0.00 | 52 | 1006.0 |
| 20260504032704 | 59 | 225 | 6.0 | 9.0 | 0.00 | 0.00 | 0.00 | 52 | 1006.1 |
| 20260504031804 | 59 | 226 | 6.0 | 9.0 | 0.00 | 0.00 | 0.00 | 52 | 1006.1 |
| 20260504030903 | 59 | 227 | 6.0 | 8.0 | 0.00 | 0.00 | 0.00 | 51 | 1006.2 |
| 20260504030004 | 59 | 226 | 5.0 | 8.0 | 0.00 | 0.00 | 0.00 | 51 | 1006.1 |
| 20260504025404 | 59 | 226 | 6.0 | 8.0 | 0.00 | 0.00 | 0.00 | 50 | 1006.0 |
| 20260504024526 | 60 | 226 | 6.0 | 9.0 | 0.00 | 0.00 | 0.00 | 48 | 1006.0 |
| 20260504023604 | 61 | 225 | 6.0 | 9.0 | 0.00 | 0.00 | 0.00 | 48 | 1006.0 |
| 20260504022704 | 61 | 226 | 6.0 | 8.0 | 0.00 | 0.00 | 0.00 | 48 | 1005.9 |
| 20260504021804 | 61 | 225 | 7.0 | 10.0 | 0.00 | 0.00 | 0.00 | 47 | 1005.9 |
| 20260504020905 | 62 | 223 | 7.0 | 10.0 | 0.00 | 0.00 | 0.00 | 46 | 1005.8 |
| 20260504020004 | 62 | 223 | 7.0 | 10.0 | 0.00 | 0.00 | 0.00 | 46 | 1005.8 |
| 20260504015404 | 62 | 224 | 8.0 | 11.0 | 0.00 | 0.00 | 0.00 | 45 | 1005.8 |
| 20260504014504 | 63 | 222 | 8.0 | 11.0 | 0.00 | 0.00 | 0.00 | 44 | 1005.8 |
| 20260504013604 | 64 | 223 | 7.0 | 11.0 | 0.00 | 0.00 | 0.00 | 42 | 1005.7 |
| 20260504012704 | 66 | 226 | 7.0 | 11.0 | 0.00 | 0.00 | 0.00 | 41 | 1005.7 |
| 20260504011804 | 66 | 226 | 8.0 | 13.0 | 0.00 | 0.00 | 0.00 | 40 | 1005.7 |
| 20260504010904 | 66 | 227 | 7.0 | 12.0 | 0.00 | 0.00 | 0.00 | 39 | 1005.6 |
| 20260504010004 | 68 | 226 | 7.0 | 12.0 | 0.00 | 0.00 | 0.00 | 38 | 1005.6 |
| 20260504005403 | 68 | 225 | 7.0 | 12.0 | 0.00 | 0.00 | 0.00 | 37 | 1005.5 |
| 20260504004503 | 69 | 225 | 6.0 | 11.0 | 0.00 | 0.00 | 0.00 | 36 | 1005.6 |
| 20260504003603 | 70 | 225 | 6.0 | 11.0 | 0.00 | 0.00 | 0.00 | 35 | 1005.5 |
| 20260504002703 | 71 | 226 | 7.0 | 14.0 | 0.00 | 0.00 | 0.00 | 33 | 1005.6 |
| 20260504001804 | 71 | 224 | 8.0 | 16.0 | 0.00 | 0.00 | 0.00 | 32 | 1005.5 |
| 20260504000903 | 72 | 228 | 7.0 | 12.0 | 0.00 | 0.00 | 0.00 | 31 | 1005.5 |
| 20260504000003 | 72 | 233 | 7.0 | 15.0 | 0.00 | 0.00 | 0.00 | 30 | 1005.5 |
| 20260503235403 | 73 | 232 | 8.0 | 15.0 | 0.00 | 0.00 | 0.00 | 30 | 1005.4 |
| 20260503234503 | 73 | 231 | 8.0 | 16.0 | 0.00 | 0.00 | 0.00 | 29 | 1005.4 |
| 20260503233603 | 73 | 232 | 6.0 | 14.0 | 0.00 | 0.00 | 0.00 | 29 | 1005.5 |
| 20260503232704 | 73 | 235 | 7.0 | 17.0 | 0.00 | 0.00 | 0.00 | 29 | 1005.5 |
| 20260503231804 | 73 | 243 | 6.0 | 15.0 | 0.00 | 0.00 | 0.00 | 28 | 1005.3 |
| 20260503230904 | 73 | 242 | 7.0 | 15.0 | 0.00 | 0.00 | 0.00 | 29 | 1005.5 |
| 20260503230025 | 73 | 231 | 9.0 | 21.0 | 0.00 | 0.00 | 0.00 | 29 | 1005.5 |
| 20260503225403 | 74 | 239 | 6.0 | 16.0 | 0.00 | 0.00 | 0.00 | 29 | 1005.5 |
| 20260503224503 | 73 | 248 | 5.0 | 11.0 | 0.00 | 0.00 | 0.00 | 30 | 1005.6 |
| 20260503223603 | 74 | 243 | 7.0 | 17.0 | 0.00 | 0.00 | 0.00 | 29 | 1005.5 |
| 20260503222724 | 73 | 246 | 6.0 | 15.0 | 0.00 | 0.00 | 0.00 | 30 | 1005.6 |
| 20260503221803 | 73 | 238 | 8.0 | 18.0 | 0.00 | 0.00 | 0.00 | 30 | 1005.7 |
| 20260503220903 | 73 | 246 | 5.0 | 16.0 | 0.00 | 0.00 | 0.00 | 31 | 1005.7 |
| 20260503220024 | 72 | 247 | 7.0 | 14.0 | 0.00 | 0.00 | 0.00 | 33 | 1005.7 |
| 20260503215403 | 72 | 249 | 6.0 | 15.0 | 0.00 | 0.00 | 0.00 | 32 | 1005.8 |
| 20260503214503 | 72 | 240 | 8.0 | 22.0 | 0.00 | 0.00 | 0.00 | 33 | 1005.9 |
| 20260503213603 | 72 | 237 | 8.0 | 21.0 | 0.00 | 0.00 | 0.00 | 33 | 1005.8 |
| 20260503212724 | 72 | 254 | 5.0 | 13.0 | 0.00 | 0.00 | 0.00 | 35 | 1005.9 |
| 20260503211803 | 72 | 254 | 6.0 | 15.0 | 0.00 | 0.00 | 0.00 | 35 | 1006.0 |
| 20260503210903 | 72 | 262 | 6.0 | 12.0 | 0.00 | 0.00 | 0.00 | 35 | 1006.2 |
| 20260503210004 | 70 | 248 | 6.0 | 18.0 | 0.00 | 0.00 | 0.00 | 36 | 1006.2 |
| 20260503205403 | 71 | 250 | 5.0 | 13.0 | 0.00 | 0.00 | 0.00 | 36 | 1006.4 |
| 20260503204504 | 71 | 242 | 10.0 | 22.0 | 0.00 | 0.00 | 0.00 | 35 | 1006.6 |
| 20260503203603 | 71 | 233 | 10.0 | 26.0 | 0.00 | 0.00 | 0.00 | 36 | 1006.6 |
| 20260503202703 | 71 | 242 | 7.0 | 20.0 | 0.00 | 0.00 | 0.00 | 36 | 1006.7 |
| 20260503201825 | 71 | 252 | 5.0 | 18.0 | 0.00 | 0.00 | 0.00 | 35 | 1006.7 |
| 20260503200903 | 70 | 244 | 7.0 | 17.0 | 0.00 | 0.00 | 0.00 | 37 | 1006.8 |
| 20260503200004 | 69 | 241 | 8.0 | 22.0 | 0.00 | 0.00 | 0.00 | 37 | 1006.9 |
| 20260503195403 | 70 | 234 | 10.0 | 23.0 | 0.00 | 0.00 | 0.00 | 37 | 1006.9 |
| 20260503194503 | 70 | 236 | 10.0 | 25.0 | 0.00 | 0.00 | 0.00 | 38 | 1007.1 |
| 20260503193603 | 69 | 234 | 11.0 | 29.0 | 0.00 | 0.00 | 0.00 | 37 | 1007.0 |
| 20260503192703 | 69 | 229 | 11.0 | 23.0 | 0.00 | 0.00 | 0.00 | 37 | 1007.0 |
| 20260503191803 | 69 | 229 | 11.0 | 23.0 | 0.00 | 0.00 | 0.00 | 39 | 1006.6 |
| 20260503190903 | 68 | 227 | 15.0 | 28.0 | 0.00 | 0.00 | 0.00 | 39 | 1006.7 |
| 20260503190003 | 68 | 235 | 10.0 | 21.0 | 0.00 | 0.00 | 0.00 | 38 | 1007.2 |
| 20260503185424 | 68 | 234 | 11.0 | 21.0 | 0.00 | 0.00 | 0.00 | 39 | 1007.3 |
| 20260503184503 | 68 | 239 | 7.0 | 20.0 | 0.00 | 0.00 | 0.00 | 38 | 1007.3 |
| 20260503183624 | 67 | 236 | 11.0 | 26.0 | 0.00 | 0.00 | 0.00 | 38 | 1007.1 |
| 20260503182704 | 66 | 232 | 14.0 | 27.0 | 0.00 | 0.00 | 0.00 | 40 | 1007.4 |
| 20260503181803 | 67 | 226 | 17.0 | 31.0 | 0.00 | 0.00 | 0.00 | 38 | 1007.5 |
| 20260503180903 | 67 | 231 | 12.0 | 28.0 | 0.00 | 0.00 | 0.00 | 38 | 1007.4 |
| 20260503180004 | 67 | 233 | 14.0 | 26.0 | 0.00 | 0.00 | 0.00 | 38 | 1007.7 |
| 20260503175403 | 66 | 234 | 14.0 | 26.0 | 0.00 | 0.00 | 0.00 | 38 | 1007.7 |
| 20260503174503 | 66 | 231 | 15.0 | 26.0 | 0.00 | 0.00 | 0.00 | 38 | 1007.9 |
| 20260503173624 | 66 | 230 | 16.0 | 26.0 | 0.00 | 0.00 | 0.00 | 39 | 1007.9 |
| 20260503172703 | 65 | 244 | 8.0 | 15.0 | 0.00 | 0.00 | 0.00 | 40 | 1008.0 |
| 20260503171803 | 66 | 234 | 14.0 | 35.0 | 0.00 | 0.00 | 0.00 | 38 | 1008.2 |
| 20260503170903 | 65 | 226 | 16.0 | 27.0 | 0.00 | 0.00 | 0.00 | 40 | 1008.4 |
| 20260503150904 | 57 | 203 | 16.0 | 28.0 | 0.00 | 0.00 | 0.00 | 48 | 1009.4 |
| 20260503130904 | 53 | 209 | 18.0 | 30.0 | 0.00 | 0.00 | 0.00 | 52 | 1011.4 |